Total_Precipitation_Accumulation
0.00 0.00 0.00 0.00 0.00 0.00 0.00 0.00 0.00 0.00 0.00 0.00 0.00 0.01 0.03 0.05 0.07 0.09 0.08 0.10 0.14 0.15 0.18 0.22 0.23 0.25 0.29 0.26 0.29 0.32 0.33 0.39 0.37 0.10 0.03 0.05 0.15 0.21 0.20 0.15 0.15 0.16 0.15
0.00 0.00 0.00 0.00 0.00 0.00 0.00 0.00 0.00 0.00 0.00 0.00 0.01 0.03 0.06 0.10 0.11 0.13 0.13 0.12 0.16 0.18 0.20 0.24 0.26 0.25 0.26 0.24 0.27 0.28 0.25 0.24 0.29 0.18 0.05 0.05 0.10 0.18 0.26 0.27 0.21 0.19 0.18
0.00 0.00 0.00 0.00 0.00 0.00 0.00 0.00 0.00 0.00 0.00 0.00 0.01 0.05 0.13 0.20 0.19 0.15 0.19 0.19 0.19 0.20 0.22 0.26 0.26 0.25 0.25 0.22 0.26 0.26 0.21 0.19 0.23 0.24 0.11 0.06 0.10 0.13 0.24 0.34 0.30 0.26 0.23
0.00 0.00 0.00 0.00 0.00 0.00 0.00 0.00 0.00 0.00 0.01 0.01 0.01 0.03 0.14 0.33 0.36 0.27 0.31 0.30 0.24 0.20 0.17 0.17 0.23 0.33 0.32 0.31 0.33 0.27 0.23 0.24 0.26 0.27 0.18 0.11 0.13 0.15 0.23 0.34 0.39 0.37 0.31
0.00 0.00 0.00 0.00 0.00 0.00 0.00 0.00 0.00 0.01 0.01 0.01 0.01 0.02 0.08 0.42 0.79 0.73 0.67 0.49 0.28 0.17 0.11 0.10 0.18 0.31 0.36 0.48 0.57 0.47 0.43 0.45 0.39 0.35 0.30 0.24 0.23 0.25 0.29 0.31 0.42 0.47 0.42
0.00 0.00 0.00 0.00 0.00 0.00 0.00 0.00 0.01 0.01 0.01 0.02 0.02 0.02 0.04 0.30 0.83 0.91 0.67 0.36 0.22 0.15 0.11 0.08 0.11 0.22 0.24 0.29 0.39 0.45 0.50 0.57 0.56 0.51 0.46 0.40 0.34 0.33 0.32 0.36 0.41 0.50 0.53
0.00 0.00 0.00 0.00 0.00 0.00 0.00 0.01 0.01 0.01 0.02 0.02 0.02 0.02 0.02 0.16 0.66 0.77 0.47 0.24 0.15 0.12 0.09 0.07 0.08 0.16 0.21 0.27 0.29 0.27 0.26 0.35 0.51 0.56 0.56 0.44 0.39 0.34 0.36 0.40 0.40 0.44 0.51
0.00 0.00 0.00 0.00 0.00 0.00 0.00 0.01 0.01 0.02 0.02 0.02 0.02 0.02 0.01 0.08 0.51 0.64 0.35 0.18 0.11 0.08 0.05 0.05 0.05 0.10 0.22 0.38 0.38 0.31 0.27 0.32 0.45 0.53 0.67 0.64 0.53 0.49 0.58 0.62 0.57 0.44 0.41
0.00 0.00 0.00 0.00 0.00 0.00 0.01 0.01 0.02 0.03 0.02 0.02 0.02 0.01 0.01 0.02 0.30 0.53 0.33 0.16 0.08 0.05 0.02 0.03 0.05 0.08 0.20 0.33 0.29 0.22 0.18 0.22 0.28 0.38 0.47 0.55 0.55 0.57 0.65 0.75 0.71 0.56 0.51
0.00 0.00 0.00 0.00 0.00 0.01 0.01 0.02 0.02 0.02 0.02 0.02 0.02 0.01 0.01 0.01 0.14 0.37 0.37 0.19 0.07 0.03 0.02 0.01 0.05 0.13 0.21 0.26 0.17 0.15 0.26 0.28 0.23 0.20 0.21 0.28 0.34 0.40 0.53 0.74 0.91 0.79 0.65
0.00 0.00 0.00 0.00 0.00 0.01 0.02 0.02 0.02 0.03 0.03 0.02 0.01 0.01 0.01 0.01 0.05 0.20 0.35 0.26 0.14 0.06 0.03 0.01 0.03 0.12 0.15 0.15 0.13 0.16 0.37 0.34 0.18 0.16 0.17 0.22 0.28 0.37 0.50 0.67 0.89 1.00 0.83
0.00 0.00 0.00 0.00 0.01 0.02 0.03 0.03 0.03 0.03 0.03 0.02 0.02 0.02 0.01 0.01 0.05 0.15 0.24 0.21 0.16 0.06 0.03 0.02 0.04 0.09 0.07 0.06 0.06 0.13 0.16 0.11 0.08 0.11 0.13 0.18 0.26 0.35 0.46 0.61 0.82 0.97 0.99
0.00 0.00 0.00 0.01 0.01 0.03 0.03 0.04 0.03 0.04 0.06 0.04 0.03 0.02 0.01 0.01 0.07 0.15 0.12 0.09 0.10 0.05 0.02 0.03 0.03 0.03 0.02 0.01 0.02 0.05 0.04 0.04 0.09 0.12 0.16 0.21 0.28 0.37 0.41 0.46 0.59 0.84 0.97
0.00 0.00 0.01 0.01 0.02 0.03 0.04 0.04 0.05 0.07 0.14 0.10 0.05 0.03 0.02 0.04 0.18 0.27 0.15 0.05 0.05 0.04 0.02 0.01 0.00 0.00 0.00 0.00 0.00 0.01 0.01 0.04 0.11 0.14 0.17 0.18 0.18 0.23 0.34 0.46 0.53 0.69 0.88
0.00 0.01 0.01 0.02 0.03 0.04 0.04 0.04 0.05 0.07 0.15 0.15 0.10 0.08 0.08 0.15 0.28 0.27 0.16 0.09 0.06 0.05 0.03 0.01 0.00 0.00 0.00 0.00 0.00 0.00 0.01 0.02 0.04 0.07 0.11 0.14 0.15 0.19 0.27 0.39 0.54 0.67 0.83
0.00 0.01 0.02 0.03 0.04 0.04 0.04 0.04 0.04 0.05 0.07 0.06 0.07 0.09 0.08 0.16 0.20 0.14 0.11 0.06 0.05 0.04 0.02 0.01 0.00 0.00 0.01 0.01 0.02 0.01 0.01 0.02 0.03 0.04 0.08 0.13 0.18 0.22 0.26 0.31 0.44 0.62 0.81
0.00 0.01 0.02 0.03 0.04 0.04 0.04 0.04 0.04 0.03 0.03 0.03 0.04 0.05 0.08 0.10 0.09 0.09 0.07 0.03 0.02 0.01 0.01 0.01 0.01 0.01 0.02 0.02 0.03 0.04 0.03 0.02 0.02 0.03 0.05 0.09 0.14 0.18 0.22 0.26 0.35 0.49 0.69
0.01 0.01 0.03 0.03 0.04 0.04 0.04 0.04 0.04 0.04 0.03 0.02 0.02 0.03 0.06 0.07 0.06 0.06 0.05 0.03 0.02 0.01 0.01 0.02 0.02 0.02 0.03 0.04 0.05 0.05 0.04 0.02 0.02 0.02 0.03 0.05 0.09 0.14 0.17 0.22 0.29 0.42 0.58
0.01 0.02 0.02 0.03 0.04 0.04 0.03 0.04 0.04 0.04 0.03 0.03 0.02 0.03 0.05 0.06 0.06 0.06 0.06 0.05 0.03 0.02 0.02 0.02 0.03 0.03 0.04 0.04 0.05 0.05 0.05 0.04 0.03 0.03 0.02 0.03 0.05 0.08 0.13 0.18 0.24 0.33 0.45
0.01 0.02 0.02 0.03 0.04 0.04 0.04 0.04 0.04 0.04 0.03 0.03 0.04 0.06 0.12 0.14 0.12 0.10 0.08 0.05 0.03 0.03 0.02 0.03 0.03 0.04 0.04 0.05 0.05 0.05 0.05 0.04 0.03 0.02 0.02 0.03 0.03 0.05 0.08 0.13 0.18 0.25 0.34
0.00 0.01 0.02 0.03 0.04 0.04 0.04 0.04 0.04 0.04 0.04 0.03 0.04 0.06 0.14 0.15 0.11 0.09 0.07 0.06 0.06 0.06 0.05 0.05 0.04 0.05 0.05 0.05 0.06 0.05 0.06 0.05 0.04 0.03 0.03 0.02 0.02 0.03 0.05 0.08 0.13 0.19 0.27
0.01 0.01 0.02 0.04 0.04 0.05 0.05 0.05 0.05 0.05 0.04 0.05 0.05 0.05 0.09 0.11 0.11 0.10 0.08 0.06 0.06 0.07 0.08 0.08 0.07 0.07 0.09 0.10 0.11 0.09 0.07 0.06 0.04 0.04 0.03 0.02 0.01 0.02 0.03 0.04 0.08 0.13 0.20
0.01 0.02 0.03 0.04 0.05 0.06 0.07 0.07 0.07 0.06 0.05 0.06 0.07 0.07 0.09 0.11 0.10 0.10 0.09 0.07 0.07 0.07 0.07 0.08 0.08 0.07 0.08 0.10 0.11 0.13 0.13 0.10 0.07 0.06 0.04 0.02 0.01 0.01 0.02 0.03 0.06 0.09 0.15
0.02 0.04 0.05 0.06 0.07 0.08 0.09 0.09 0.08 0.07 0.07 0.08 0.08 0.08 0.08 0.09 0.08 0.08 0.07 0.07 0.07 0.07 0.08 0.10 0.10 0.10 0.11 0.11 0.10 0.12 0.13 0.11 0.09 0.06 0.04 0.03 0.03 0.02 0.02 0.03 0.05 0.07 0.12
0.03 0.06 0.07 0.09 0.10 0.12 0.13 0.13 0.11 0.09 0.10 0.10 0.09 0.09 0.09 0.09 0.08 0.06 0.05 0.05 0.06 0.07 0.08 0.11 0.13 0.14 0.14 0.14 0.14 0.15 0.14 0.11 0.08 0.07 0.04 0.03 0.02 0.02 0.03 0.03 0.04 0.05 0.09
0.05 0.07 0.09 0.12 0.14 0.16 0.17 0.16 0.13 0.12 0.12 0.11 0.10 0.10 0.10 0.10 0.08 0.07 0.06 0.07 0.08 0.08 0.08 0.10 0.13 0.16 0.16 0.17 0.17 0.16 0.15 0.11 0.08 0.07 0.04 0.03 0.02 0.02 0.02 0.03 0.03 0.04 0.06